Weather History for Plattsmouth, NE

Change the Weather History Date:

Tuesday, October 30, 2012

  Actual Average (KOFF) Record (KOFF)
Temperature  
Mean Temperature 46 °F -  
Max Temperature 55 °F 55 °F 74 °F (2007)
Min Temperature 36 °F 37 °F 30 °F (1996)
Degree Days  
Heating Degree Days 20    
Moisture  
Dew Point 28 °F    
Average Humidity 55    
Maximum Humidity 80    
Minimum Humidity 33    
Precipitation  
Precipitation 0.00 in - - ()
Sea Level Pressure  
Sea Level Pressure 30.06 in    
Wind  
Wind Speed 8 mph (East)    
Max Wind Speed 14 mph    
Max Gust Speed -    
Visibility 10 miles    
Events      
Averages and records for this station are not official NWS values.
T = Trace of Precipitation, MM = Missing Value Source: NWS Daily Summary

Daily Weather History Graph

Daily Weather History Graph

Search for Another Location

Airport:

Trip Planner

Search our weather history database for the weather conditions in past years. The results will help you decide how hot, cold, wet, or windy it might be!

Date:

Astronomy

Oct. 30, 2012 Rise Set
Actual Time 7:52 AM CDT 6:21 PM CDT
Civil Twilight 7:24 AM CDT 6:49 PM CDT
Nautical Twilight 6:51 AM CDT 7:22 PM CDT
Astronomical Twilight 6:19 AM CDT 7:54 PM CDT
Moon 6:51 PM CDT 8:40 AM CDT
Length of Visible Light 11h 25m
Length of Day
10h 28m
Full, 99% of the Moon is Illuminated
Oct 30
Full
Nov 6
Last Quarter
Nov 13
New
Nov 20
First Quarter
Nov 28
Full

Hourly Weather History & Observations

Time (CDT) Temp. Windchill Dew Point Humidity Pressure Visibility Wind Dir Wind Speed Gust Speed Precip Events Conditions
12:15 AM 41.0 °F 35.2 °F 30.9 °F 67% 30.11 in 10.0 mi ESE 9.2 mph - N/A   Clear
12:35 AM 40.5 °F 35.1 °F 30.7 °F 68% 30.11 in 10.0 mi ESE 8.1 mph - N/A   Clear
12:55 AM 40.5 °F 34.6 °F 30.7 °F 68% 30.11 in 10.0 mi ESE 9.2 mph - N/A   Clear
1:15 AM 40.1 °F 34.7 °F 30.7 °F 69% 30.10 in 10.0 mi ESE 8.1 mph - N/A   Clear
1:35 AM 39.6 °F 33.5 °F 30.7 °F 71% 30.10 in 10.0 mi ESE 9.2 mph - N/A   Clear
2:55 AM 39.6 °F 33.0 °F 30.6 °F 70% 30.08 in 10.0 mi SE 10.4 mph - N/A   Clear
3:15 AM 39.6 °F 33.0 °F 30.4 °F 70% 30.08 in 10.0 mi ESE 10.4 mph - N/A   Clear
3:55 AM 36.9 °F 30.1 °F 30.0 °F 76% 30.07 in 10.0 mi ESE 9.2 mph - N/A   Clear
4:15 AM 38.1 °F 32.3 °F 30.2 °F 73% 30.07 in 10.0 mi ESE 8.1 mph - N/A   Clear
4:35 AM 36.3 °F 30.8 °F 30.0 °F 78% 30.07 in 10.0 mi East 6.9 mph - N/A   Clear
4:55 AM 36.7 °F 31.2 °F 31.1 °F 80% 30.08 in 10.0 mi East 6.9 mph - N/A   Mostly Cloudy
5:15 AM 37.6 °F 31.0 °F 31.1 °F 77% 30.06 in 10.0 mi East 9.2 mph - N/A   Overcast
5:35 AM 36.7 °F 29.4 °F 30.7 °F 79% 30.06 in 10.0 mi East 10.4 mph - N/A   Scattered Clouds
5:55 AM 36.5 °F 29.7 °F 30.2 °F 78% 30.06 in 10.0 mi East 9.2 mph - N/A   Clear
6:15 AM 37.4 °F 30.3 °F 30.6 °F 76% 30.07 in 10.0 mi East 10.4 mph - N/A   Mostly Cloudy
6:35 AM 37.8 °F 30.2 °F 30.4 °F 75% 30.07 in 10.0 mi ESE 11.5 mph - N/A   Mostly Cloudy
7:15 AM 37.0 °F 29.3 °F 30.0 °F 76% 30.06 in 10.0 mi ESE 11.5 mph - N/A   Clear
7:35 AM 37.4 °F 29.3 °F 29.8 °F 74% 30.05 in 10.0 mi ESE 12.7 mph - N/A   Clear
7:55 AM 37.2 °F 30.6 °F 30.0 °F 75% 30.06 in 10.0 mi ESE 9.2 mph - N/A   Clear
8:35 AM 38.8 °F 32.6 °F 30.9 °F 73% 30.06 in 10.0 mi ESE 9.2 mph - N/A   Clear
8:55 AM 39.2 °F 33.0 °F 31.1 °F 73% 30.07 in 10.0 mi East 9.2 mph - N/A   Scattered Clouds
9:15 AM 40.3 °F 32.6 °F 31.1 °F 70% 30.07 in 10.0 mi East 13.8 mph - N/A   Scattered Clouds
9:35 AM 41.0 °F 34.3 °F 31.3 °F 68% 30.08 in 10.0 mi East 11.5 mph - N/A   Mostly Cloudy
9:55 AM 41.7 °F 35.6 °F 31.5 °F 67% 30.08 in 10.0 mi East 10.4 mph - N/A   Overcast
10:15 AM 42.4 °F 35.7 °F 30.7 °F 63% 30.08 in 10.0 mi ESE 12.7 mph - N/A   Overcast
10:35 AM 43.3 °F 37.2 °F 30.9 °F 62% 30.08 in 10.0 mi ESE 11.5 mph - N/A   Mostly Cloudy
10:55 AM 44.1 °F 38.1 °F 30.0 °F 58% 30.09 in 10.0 mi ESE 11.5 mph - N/A   Overcast
11:15 AM 44.8 °F 39.9 °F 29.8 °F 56% 30.09 in 10.0 mi East 9.2 mph - N/A   Overcast
11:35 AM 45.9 °F 41.2 °F 30.2 °F 54% 30.09 in 10.0 mi East 9.2 mph - N/A   Overcast
11:55 AM 47.1 °F - 29.5 °F 50% 30.08 in 10.0 mi East 9.2 mph - N/A   Overcast
12:15 PM 48.2 °F - 28.6 °F 47% 30.09 in 10.0 mi ESE 8.1 mph - N/A   Overcast
12:35 PM 48.2 °F - 28.6 °F 47% 30.07 in 10.0 mi ESE 9.2 mph - N/A   Overcast
12:55 PM 49.6 °F - 28.0 °F 43% 30.07 in 10.0 mi East 10.4 mph - N/A   Mostly Cloudy
1:15 PM 51.8 °F - 27.0 °F 38% 30.06 in 10.0 mi East 11.5 mph - N/A   Mostly Cloudy
1:35 PM 51.3 °F - 26.2 °F 38% 30.06 in 10.0 mi East 9.2 mph - N/A   Overcast
1:55 PM 51.3 °F - 26.6 °F 38% 30.06 in 10.0 mi East 8.1 mph - N/A   Mostly Cloudy
2:15 PM 51.6 °F - 26.6 °F 38% 30.05 in 10.0 mi East 6.9 mph - N/A   Scattered Clouds
2:35 PM 53.8 °F - 26.8 °F 35% 30.04 in 10.0 mi East 6.9 mph - N/A   Scattered Clouds
2:55 PM 54.0 °F - 27.1 °F 36% 30.04 in 10.0 mi East 8.1 mph - N/A   Clear
3:15 PM 54.7 °F - 27.7 °F 35% 30.04 in 10.0 mi ESE 5.8 mph - N/A   Clear
3:35 PM 54.5 °F - 26.1 °F 33% 30.04 in 10.0 mi NE 6.9 mph - N/A   Clear
3:55 PM 54.9 °F - 26.2 °F 33% 30.03 in 10.0 mi East 8.1 mph - N/A   Mostly Cloudy
4:15 PM 55.0 °F - 26.4 °F 33% 30.04 in 10.0 mi East 3.5 mph - N/A   Overcast
4:35 PM 54.5 °F - 26.2 °F 34% 30.03 in 7.0 mi ENE 5.8 mph - N/A   Scattered Clouds
4:55 PM 54.0 °F - 26.4 °F 35% 30.03 in 10.0 mi East 5.8 mph - N/A   Clear
5:15 PM 53.4 °F - 26.6 °F 36% 30.04 in 10.0 mi NE 5.8 mph - N/A   Clear
5:35 PM 52.3 °F - 26.4 °F 37% 30.03 in 10.0 mi NE 6.9 mph - N/A   Clear
5:55 PM 50.9 °F - 27.7 °F 41% 30.03 in 10.0 mi NE 3.5 mph - N/A   Scattered Clouds
6:15 PM 49.5 °F - 27.3 °F 42% 30.03 in 10.0 mi NNE 3.5 mph - N/A   Scattered Clouds
6:35 PM 48.2 °F - 27.9 °F 45% 30.04 in 10.0 mi NNE 3.5 mph - N/A   Clear
6:55 PM 48.4 °F - 27.5 °F 44% 30.04 in 10.0 mi Calm Calm - N/A   Clear
7:15 PM 47.7 °F - 27.3 °F 45% 30.04 in 10.0 mi Calm Calm - N/A   Clear
7:35 PM 46.9 °F - 27.3 °F 46% 30.04 in 10.0 mi NNE 3.5 mph - N/A   Clear
7:55 PM 47.1 °F - 27.0 °F 46% 30.04 in 10.0 mi North 3.5 mph - N/A   Clear
8:15 PM 46.0 °F - 26.6 °F 47% 30.05 in 10.0 mi Calm Calm - N/A   Clear
8:35 PM 45.9 °F 44.6 °F 26.4 °F 47% 30.05 in 10.0 mi North 3.5 mph - N/A   Clear
8:55 PM 45.7 °F 43.4 °F 26.6 °F 47% 30.04 in 10.0 mi NNE 4.6 mph - N/A   Clear
9:15 PM 44.6 °F 43.1 °F 26.6 °F 49% 30.04 in 10.0 mi ENE 3.5 mph - N/A   Clear
9:35 PM 43.7 °F 42.1 °F 26.4 °F 51% 30.04 in 10.0 mi ENE 3.5 mph - N/A   Clear
9:55 PM 43.3 °F 40.7 °F 25.7 °F 50% 30.04 in 10.0 mi ENE 4.6 mph - N/A   Clear
10:15 PM 42.6 °F - 25.7 °F 51% 30.04 in 10.0 mi Calm Calm - N/A   Clear
10:35 PM 42.4 °F 40.7 °F 25.5 °F 51% 30.04 in 10.0 mi NNE 3.5 mph - N/A   Clear
10:55 PM 42.8 °F 41.1 °F 24.8 °F 49% 30.04 in 10.0 mi NNE 3.5 mph - N/A   Scattered Clouds
11:15 PM 43.3 °F 40.7 °F 24.3 °F 47% 30.04 in 10.0 mi NE 4.6 mph - N/A   Scattered Clouds
11:35 PM 42.1 °F 40.2 °F 24.8 °F 50% 30.05 in 10.0 mi ENE 3.5 mph - N/A   Scattered Clouds
11:55 PM 42.3 °F - 24.6 °F 50% 30.05 in 10.0 mi Calm Calm - N/A   Mostly Cloudy